User: anonymous   Login
Location: Street
(51.1247°N, 2.7429°W)
Time: 13:54:06
(UTC+01:00)
Language:

AO-92 - Orbit

View from above orbital plane
View from above orbital plane
View from above satellite
View from above satellite

Ground track
Ground track

The orbit data is extracted from the following two-line orbital elements,

1 43137U 18004AC  23086.75901039  .00036774  00000-0  91502-3 0  9991
2 43137  97.3338 165.3972 0006633  82.4555 277.7444 15.40162916289754
Epoch (UTC): 27 March 2023 18:12:58
Eccentricity: 0.0006633
inclination: 97.3338°
perigee height: 441 km
apogee height: 450 km
right ascension of ascending node: 165.3972°
argument of perigee: 82.4555°
revolutions per day: 15.40162916
mean anomaly at epoch: 277.7444°
orbit number at epoch: 28975

The dashed part of the orbit path shows where the satellite is in the earth's shadow,  

DLR